Location: Newark
(60.6561°N, 46.5772°E)
Time: 05:17:40
(UTC+00:00)

AO-85 - Visible Passes

Search period start: 26 November 2020 00:00
Search period end: 06 December 2020 00:00
Orbit: 521 x 762 km, 64.8° (Epoch: 12 March)

Date Brightness Start Highest point End Pass type
(mag) Time Alt. Az. Time Alt. Az. Time Alt. Az.
26 Nov ? 01:02:39 29° SE 01:02:39 29° SE 01:05:01 10° SE visible
26 Nov ? 02:40:16 26° SW 02:40:16 26° SW 02:44:12 10° S visible
27 Nov ? 01:26:53 28° SSE 01:26:53 28° SSE 01:29:18 10° SSE visible
27 Nov ? 03:04:31 16° WSW 03:04:31 16° WSW 03:07:07 10° SSW visible
28 Nov ? 01:51:12 22° S 01:51:12 22° S 01:53:14 10° SSE visible
29 Nov ? 00:37:58 10° SE 00:37:58 10° SE 00:37:59 10° SE visible
29 Nov ? 02:15:36 14° SSW 02:15:36 14° SSW 02:16:34 10° SSW visible
